GFSWCAN_sfc_dewp_129.txt.gz
Dewpoint
41 41 40 39 39 39 38 39 40 40 41 41 41 41 42 43 43 41 37 39 37 34 36 38 35 31 32 31 27 30 32 34 30 27 26 24 22 25 23 25 25 23 22 22 24 21 17 28 28 23 24 28 28 26
43 42 42 41 40 39 40 39 39 40 40 40 41 41 42 42 43 42 36 41 40 35 36 39 41 41 36 33 32 31 30 30 31 30 28 28 27 25 23 20 31 26 27 25 25 22 26 28 27 29 29 29 27 26
44 44 43 43 42 42 41 40 40 40 40 40 41 41 41 42 43 42 37 40 40 36 34 35 35 41 43 42 39 31 31 32 32 32 29 29 23 28 26 24 29 31 31 27 27 27 28 27 29 29 29 28 28 27
43 43 44 44 43 42 42 42 40 40 40 40 41 41 41 42 42 42 37 40 38 37 31 35 38 40 42 43 41 38 34 35 35 35 32 30 31 33 28 30 29 29 32 30 27 24 26 27 28 29 26 27 27 25
43 44 45 46 44 43 42 42 42 40 40 40 41 42 42 43 43 42 39 40 41 35 29 34 37 38 42 41 39 39 35 35 35 33 34 33 33 32 30 30 28 32 30 26 24 26 27 23 25 28 25 25 26 24
43 44 45 46 44 43 42 42 43 42 41 41 41 42 42 43 43 40 34 41 42 41 33 30 38 38 39 40 38 37 38 38 36 32 30 32 33 30 22 23 28 30 28 28 27 28 26 25 26 27 25 24 24 23
43 43 44 44 44 43 42 43 43 42 41 41 42 42 43 43 41 33 31 39 44 43 34 31 32 38 39 40 40 39 41 40 37 33 30 30 29 28 23 21 24 26 28 29 29 28 27 26 24 26 26 25 25 22
42 43 43 44 44 44 43 43 43 42 41 42 42 42 43 42 39 36 41 43 43 38 37 29 30 35 39 35 35 38 36 37 35 34 31 28 29 26 21 21 24 28 28 28 28 27 27 27 27 26 25 24 22 21
42 43 43 42 43 43 43 43 43 42 41 41 42 43 41 37 34 37 43 42 42 39 31 30 26 26 39 35 32 32 32 28 30 28 29 28 25 23 23 24 26 27 28 27 27 27 27 26 26 25 25 23 21 22
42 42 42 41 42 41 42 42 42 42 42 43 41 36 32 37 44 43 41 34 35 37 35 27 28 28 33 31 29 29 28 26 24 27 30 26 23 28 29 29 28 28 28 27 26 26 26 26 26 27 27 26 25 25
43 43 42 42 42 42 42 42 42 41 40 36 36 34 40 44 39 35 31 31 32 30 28 28 28 29 33 29 29 29 27 27 21 24 24 22 21 26 29 29 29 29 29 27 26 27 27 27 27 29 28 28 28 25
43 43 43 43 43 42 42 41 40 38 37 37 39 41 41 36 33 29 27 26 25 26 28 26 28 31 32 33 29 28 25 24 18 24 20 16 21 28 29 28 28 29 28 28 27 27 27 28 28 29 28 27 25 25
43 43 43 42 41 41 41 43 42 41 40 36 34 28 30 26 16 17 14 22 19 26 28 29 28 31 32 30 27 26 18 17 24 19 18 19 24 28 28 28 28 28 28 28 27 27 28 29 30 28 26 25 23 21
41 42 43 43 43 43 43 43 43 41 35 29 24 16 23 16 22 23 25 26 28 29 31 31 28 31 28 27 22 17 21 24 13 10 17 18 26 30 29 28 27 28 29 28 28 26 28 28 26 27 23 23 22 20
39 39 40 42 43 43 43 42 41 38 34 29 27 19 20 27 30 32 31 26 27 29 30 30 27 28 25 21 23 21 18 14 16 15 21 28 25 29 29 29 28 27 25 28 27 28 26 23 22 22 24 24 23 20
38 37 36 42 42 41 40 38 37 35 32 30 30 28 30 30 31 25 24 28 30 28 29 28 24 19 18 21 20 14 18 14 14 19 30 25 29 29 29 28 27 25 24 26 24 21 21 21 21 21 21 21 20 19
36 32 39 41 40 39 40 34 32 31 30 28 26 32 31 32 31 32 32 30 33 29 24 25 17 18 24 18 21 23 14 14 26 27 29 31 30 29 28 28 26 22 20 18 17 20 18 19 20 20 17 18 19 19
32 34 41 39 37 34 33 32 29 29 28 30 28 30 31 31 28 27 30 29 31 28 27 24 26 21 13 18 22 25 27 27 28 28 29 32 30 29 29 27 25 21 17 15 16 16 19 19 19 19 19 19 18 18
36 36 40 39 35 30 27 28 30 27 29 31 31 28 28 29 31 31 30 31 32 32 30 28 25 23 23 27 26 25 27 27 26 27 29 31 30 29 28 26 24 19 18 16 20 20 20 21 20 20 19 19 17 18
37 37 38 38 35 28 25 27 31 28 27 29 30 28 25 27 29 26 28 30 30 29 28 28 28 29 28 28 24 29 28 28 27 26 26 28 29 29 27 26 25 23 22 22 22 21 21 20 19 19 19 19 18 17
31 32 35 33 31 30 28 26 27 28 28 26 28 27 26 26 24 23 25 28 28 30 28 30 29 25 30 29 30 30 26 26 24 24 24 26 28 28 28 27 26 24 21 21 19 20 20 20 19 18 17 16 15 17
30 35 29 29 27 27 26 27 27 27 26 26 25 26 21 16 19 20 26 25 28 29 30 30 26 28 30 30 30 31 30 30 29 26 25 26 26 26 26 25 25 20 20 19 21 19 19 21 20 19 18 17 17 16
32 29 26 24 19 18 20 25 23 25 18 22 26 23 20 15 20 27 27 27 28 30 29 30 29 29 29 29 29 29 29 28 27 27 26 27 28 27 26 26 25 23 21 21 22 21 20 20 19 18 18 17 18 17
29 24 17 18 19 12 19 17 24 23 25 23 22 21 19 17 24 27 24 27 28 29 28 30 29 28 28 28 27 27 29 29 28 28 29 28 26 26 27 26 26 26 25 23 22 19 18 17 16 17 17 17 17 18
16 15 13 7 16 12 10 10 12 16 12 18 16 19 14 26 22 20 24 25 26 26 27 28 29 29 27 26 26 26 27 29 28 27 27 28 26 27 26 26 25 26 27 21 14 11 13 18 19 19 18 17 16 15
10 10 10 8 9 13 14 9 8 10 10 10 13 16 20 16 10 20 23 24 26 25 26 26 27 27 27 28 26 26 26 27 28 26 26 28 27 26 25 24 23 24 24 23 19 17 18 20 19 18 17 17 16 13
12 9 19 25 24 21 12 12 18 12 6 8 9 5 4 3 14 22 25 25 25 26 27 28 28 28 27 25 25 24 24 25 25 24 24 23 24 24 25 24 23 22 19 23 23 21 20 20 19 19 17 16 15 13
20 16 8 12 12 15 5 5 4 11 15 23 12 5 7 13 17 23 24 26 26 27 27 27 27 27 26 25 24 23 22 22 21 17 15 14 15 16 17 16 15 20 17 21 25 25 23 21 21 19 16 14 12 12
15 16 15 7 7 12 18 14 21 24 25 21 10 13 19 22 22 23 24 25 27 27 25 24 25 26 25 24 24 24 23 21 13 8 3 1 3 13 14 16 23 24 24 24 25 24 23 21 20 18 14 11 10 8
13 17 9 -0 13 15 21 23 22 23 25 25 26 25 23 21 19 20 20 21 21 22 23 25 26 25 23 23 23 23 23 15 12 15 6 5 8 6 10 7 12 17 17 16 15 15 16 13 13 10 8 7 5 4
18 7 7 8 19 22 23 24 25 25 24 23 25 24 18 13 16 16 14 13 15 20 21 20 22 25 25 24 20 17 18 16 15 14 14 13 11 10 12 14 15 15 15 14 12 11 10 8 7 6 4 2 1 -0
7 19 10 10 14 22 21 14 21 21 21 20 19 15 15 15 8 5 10 7 10 10 9 10 10 12 16 15 17 22 20 18 17 17 16 15 14 14 14 14 13 12 11 10 9 9 7 5 4 2 0 -2 -4 -6
19 20 12 9 18 15 8 4 7 13 10 9 6 5 7 9 5 5 6 2 5 5 7 8 8 10 11 11 12 16 19 18 18 19 17 17 15 15 14 13 12 11 9 7 6 5 3 1 -1 -3 -5 -7 -8 -10

GFSWCAN_sfc_dewp_132.txt.gz
Dewpoint
40 39 38 39 39 39 39 40 40 41 41 42 43 43 43 43 43 41 36 39 36 34 35 38 37 31 32 30 27 29 30 32 28 29 28 27 23 24 23 24 24 22 20 19 21 21 16 28 27 22 24 28 28 26
42 41 39 39 39 39 39 40 40 41 41 42 41 43 42 41 42 41 35 39 39 34 34 38 38 38 39 34 31 32 29 31 31 28 27 26 22 23 23 19 28 23 23 23 24 22 27 29 27 28 29 28 27 26
43 42 41 40 40 40 39 39 39 40 41 42 42 41 41 42 43 40 38 40 37 33 31 30 30 40 43 42 40 31 31 32 31 31 29 28 24 26 23 22 27 28 29 26 26 27 28 28 29 29 29 29 28 26
43 44 43 42 41 40 39 38 39 39 40 41 42 41 41 42 42 41 39 39 36 34 25 28 37 36 37 41 43 39 33 35 34 34 29 29 26 30 23 27 26 27 30 28 26 29 27 28 29 29 28 28 27 25
43 43 44 43 42 41 40 39 38 39 39 40 41 41 41 42 42 41 40 39 39 33 26 27 37 38 39 43 42 41 38 35 34 32 32 30 31 32 32 32 29 30 29 29 26 29 28 27 26 29 27 26 26 24
44 44 44 43 43 42 41 39 39 39 39 40 41 41 41 41 41 40 33 40 40 38 33 29 38 37 40 42 40 38 37 39 38 35 34 34 36 32 26 27 28 32 30 29 28 28 27 27 26 27 26 26 26 25
45 46 45 43 43 42 42 40 40 39 40 41 41 41 41 41 40 36 32 37 41 40 34 29 28 38 40 41 39 40 41 40 38 35 31 30 30 32 21 20 28 27 27 30 29 28 26 26 24 26 26 25 26 23
44 45 44 43 43 42 42 40 40 40 40 41 41 41 41 41 42 37 40 41 41 38 37 28 28 32 40 36 35 39 37 39 37 35 31 29 29 25 24 26 26 29 29 28 28 27 27 27 26 25 25 23 22 21
43 43 43 43 43 42 42 41 40 41 41 41 41 42 41 39 35 36 43 43 43 38 31 30 26 26 39 35 36 35 36 31 35 30 31 29 26 24 27 25 26 28 28 27 27 26 26 26 25 25 24 22 21 20
43 43 43 43 42 42 42 42 42 41 41 41 40 35 31 37 43 43 41 35 35 35 35 27 29 30 36 33 32 32 32 30 28 29 30 26 26 28 27 27 26 28 28 27 26 26 26 26 25 25 24 23 23 23
43 43 43 43 43 42 42 41 41 41 41 38 33 33 37 43 38 33 30 30 31 29 32 30 30 31 35 30 30 30 28 27 21 24 27 25 23 26 29 28 28 29 28 27 27 27 27 26 26 27 27 26 26 25
42 42 42 41 41 41 41 41 41 38 37 37 37 39 39 36 33 29 28 30 29 28 28 29 29 31 32 34 32 30 25 24 19 25 22 17 22 28 28 28 28 29 28 27 27 27 27 27 29 29 28 27 25 24
42 42 42 42 41 41 41 40 40 42 39 35 35 33 30 29 14 18 17 21 17 25 26 28 27 30 31 30 27 26 20 20 25 20 19 20 23 28 27 28 28 28 28 27 26 27 27 27 29 28 25 24 23 22
41 41 41 40 39 40 43 43 42 39 34 27 24 14 18 11 16 18 21 20 24 25 28 27 26 29 28 27 25 21 22 23 15 13 17 17 25 26 27 27 27 26 28 28 28 27 24 28 28 25 23 23 22 20
43 43 43 43 44 43 43 43 42 37 31 26 24 16 20 25 26 31 27 25 25 28 28 27 27 28 26 23 24 22 20 17 17 15 16 28 25 30 29 29 28 27 22 19 19 23 28 26 25 20 22 23 21 19
40 38 38 42 43 43 43 41 36 34 30 28 28 28 30 30 30 30 29 22 28 27 28 28 25 22 21 22 19 14 18 14 13 22 28 25 28 29 29 29 28 27 28 27 27 26 25 23 19 17 21 21 20 19
37 32 38 41 39 39 39 33 31 29 28 28 28 31 32 31 30 30 22 25 29 28 24 25 17 17 23 18 20 21 13 13 25 27 30 30 29 29 28 27 26 25 22 23 23 22 17 18 19 19 17 17 19 20
32 35 41 39 35 34 33 32 30 29 28 30 26 29 29 28 28 26 28 30 31 28 27 24 26 20 11 16 20 24 26 26 28 28 30 31 30 29 29 27 26 23 17 16 16 14 14 16 17 17 19 19 19 19
35 37 39 38 34 30 28 29 30 26 28 30 30 30 28 28 30 30 29 31 32 31 29 27 22 22 23 26 26 27 26 27 26 27 29 31 29 28 27 26 23 20 16 14 19 18 19 21 20 19 19 19 17 18
36 37 38 37 34 28 26 27 31 28 26 28 30 29 26 27 27 26 28 29 30 29 28 25 26 28 28 27 24 29 28 28 27 26 26 28 29 28 27 26 24 22 20 21 20 19 20 20 20 20 20 19 18 17
30 33 34 32 30 29 27 26 26 28 28 27 28 27 26 27 26 25 26 29 28 29 28 29 28 29 30 30 30 29 26 26 26 27 25 26 28 28 27 26 25 23 20 18 16 17 17 19 19 19 18 18 19 19
30 33 27 28 27 26 25 26 27 26 25 26 25 25 21 21 19 21 27 25 28 28 29 30 29 30 30 29 30 30 29 30 29 26 26 27 26 26 25 25 25 23 21 18 19 17 19 20 19 19 16 16 16 17
30 28 25 23 19 17 20 25 24 25 17 21 25 21 18 14 19 26 25 26 27 30 30 29 29 30 29 29 29 29 28 27 26 27 27 27 27 27 26 26 25 23 22 19 20 19 17 19 17 16 16 15 14 15
27 22 16 16 18 11 18 16 25 24 22 21 19 16 16 15 24 23 23 25 26 29 29 29 29 28 28 28 27 28 29 29 28 27 28 27 26 26 26 26 26 26 25 23 22 19 18 16 16 16 16 15 14 14
17 15 12 6 16 11 9 10 12 16 12 16 16 19 14 25 22 18 21 23 25 26 27 28 29 28 26 26 26 26 27 29 27 26 27 28 26 26 25 25 25 25 25 18 11 9 14 16 16 15 14 15 15 15
11 13 11 9 11 13 13 9 7 11 10 14 13 15 21 19 10 18 22 21 25 25 25 26 27 27 26 27 26 25 25 26 27 25 25 26 26 26 24 23 23 22 22 21 17 13 15 16 16 15 14 14 14 13
11 10 19 25 23 19 10 11 17 11 5 7 8 4 3 7 15 19 22 24 23 25 27 27 28 27 26 25 24 24 24 25 25 24 24 23 22 22 24 24 23 21 19 22 20 18 18 17 17 16 16 15 13 12
19 16 10 14 14 14 4 4 5 12 17 21 11 3 5 9 16 21 23 25 26 27 26 26 27 26 25 24 23 23 22 21 21 19 15 12 10 12 16 17 21 24 23 20 21 22 21 20 19 17 14 13 11 12
15 13 12 5 5 15 17 11 17 22 24 23 12 16 19 20 17 20 22 24 27 26 24 24 24 25 24 23 23 23 23 22 14 8 3 1 1 10 12 14 19 23 24 24 23 22 22 22 19 16 12 10 9 9
13 14 8 3 8 14 20 22 21 23 24 25 25 24 21 18 17 19 19 21 21 21 22 23 25 24 23 23 22 19 14 7 8 11 7 5 9 4 15 11 17 17 17 16 15 14 16 13 13 10 8 7 5 4
14 5 5 10 18 21 23 24 24 24 23 23 25 22 17 13 11 13 14 13 15 19 20 19 21 21 19 21 18 11 11 12 14 14 14 11 10 8 11 12 14 14 14 12 12 10 10 8 7 6 4 3 2 0
9 10 6 7 14 21 19 16 20 20 12 9 9 10 12 9 5 1 5 3 4 4 5 3 9 10 10 10 11 14 17 13 13 11 14 14 13 13 13 12 12 12 11 10 8 8 7 6 4 3 1 -1 -2 -3
17 18 11 8 16 12 12 3 5 7 6 5 9 1 4 8 7 3 3 -1 2 2 3 4 4 5 7 8 10 15 15 15 15 18 17 16 14 13 12 11 10 10 8 7 6 5 4 2 1 -1 -3 -5 -8 -10

GFSWCAN_sfc_dewp_138.txt.gz
Dewpoint
40 40 39 39 38 38 39 39 39 39 40 41 42 42 42 43 43 42 41 43 40 36 35 34 32 30 30 29 25 29 31 31 32 26 22 20 22 25 22 21 24 24 26 25 24 27 20 24 27 24 26 31 32 33
43 41 40 39 38 39 39 39 39 39 40 40 42 43 43 43 43 42 39 43 44 38 37 39 39 39 35 30 27 32 26 26 29 24 21 22 24 26 23 21 25 23 25 25 24 23 30 30 28 32 31 31 34 34
43 42 41 39 39 39 38 39 39 40 40 42 42 42 42 43 43 41 40 41 41 37 35 34 34 36 41 42 41 30 31 31 33 31 32 29 26 23 25 23 23 27 27 28 26 28 27 29 29 31 32 34 34 33
44 43 42 40 39 39 39 39 39 40 41 41 42 43 43 43 43 41 39 41 39 34 32 30 33 32 39 41 40 37 38 38 38 36 32 32 29 28 29 25 25 31 29 27 27 31 30 31 33 33 33 34 33 33
43 43 42 41 39 39 39 39 40 40 40 41 41 43 43 43 42 42 42 41 39 30 29 27 35 35 36 35 35 36 39 38 36 34 33 30 29 33 36 33 30 32 37 32 31 30 31 33 34 32 34 34 33 32
43 43 42 41 40 39 39 39 40 40 40 41 41 43 43 43 42 40 33 40 41 38 35 30 35 34 37 36 37 37 40 40 39 36 32 32 34 33 33 29 28 31 35 38 33 33 35 33 31 31 32 33 32 31
43 43 42 42 41 39 39 40 40 40 41 40 40 43 43 41 40 37 34 38 40 36 31 26 27 34 34 36 37 37 37 37 38 37 36 34 34 35 34 29 33 41 40 37 34 32 32 31 32 31 30 30 31 30
43 43 42 41 40 39 40 40 40 41 40 39 40 43 41 41 41 38 42 41 38 34 35 28 26 34 37 33 34 38 36 38 37 35 36 34 35 37 33 38 34 32 32 34 33 32 31 30 29 29 28 29 28 28
43 41 41 40 39 40 40 40 41 41 40 42 43 41 39 37 36 39 42 41 41 36 29 28 25 28 39 35 36 36 37 33 36 35 36 37 35 31 35 33 32 31 32 31 32 29 29 29 29 29 28 28 28 28
41 41 40 39 39 40 40 40 41 41 43 42 38 35 32 37 41 41 38 36 34 36 35 28 29 30 36 35 34 34 36 35 30 34 35 32 30 30 30 31 30 30 31 32 30 29 29 29 29 29 29 28 28 27
41 40 40 40 39 39 40 40 41 42 39 36 35 34 39 42 39 37 30 29 29 27 30 30 30 31 35 32 32 36 33 33 26 31 31 29 28 30 31 30 29 30 31 30 29 29 29 29 29 30 30 29 28 27
41 40 40 40 40 40 40 41 40 35 35 37 37 38 38 36 34 28 27 28 25 21 28 28 31 32 36 37 34 34 31 29 24 33 32 27 30 29 30 30 31 32 31 30 29 28 29 28 29 30 30 29 29 29
40 40 40 40 40 40 40 39 38 40 39 36 32 32 30 32 25 23 23 24 26 31 32 32 32 34 36 37 35 33 29 28 30 30 25 28 28 30 31 31 31 31 31 30 29 30 29 30 31 32 31 32 29 27
41 41 41 40 40 40 39 42 41 39 37 34 31 26 27 26 26 28 28 30 32 34 34 35 35 35 35 32 33 29 30 28 26 24 22 29 31 30 31 31 31 31 34 33 32 33 32 31 32 31 30 28 26 25
41 41 41 40 39 40 41 41 40 39 37 31 28 22 26 30 32 33 35 33 33 35 36 34 33 35 31 30 27 27 26 23 23 22 31 32 31 31 32 33 34 33 32 32 32 31 31 32 30 29 27 28 27 25
40 39 39 42 43 42 40 40 38 36 34 32 30 30 32 31 32 33 33 34 35 37 35 32 30 31 29 27 24 24 20 18 27 32 32 33 33 34 34 34 33 33 32 31 32 31 32 30 29 29 28 27 25 25
38 36 40 42 43 42 41 37 38 33 32 29 31 33 32 32 33 34 34 35 37 34 33 27 27 22 27 24 21 24 27 30 30 31 33 34 34 33 33 32 32 32 31 31 30 30 29 28 28 27 26 26 25 25
35 37 41 42 41 37 38 37 34 31 26 31 31 32 33 32 33 33 35 35 34 31 29 26 28 25 27 22 25 30 31 30 32 32 33 33 34 33 33 32 32 31 30 30 29 27 26 26 26 26 26 25 24 23
37 38 39 41 39 34 32 32 33 28 31 33 34 33 33 34 34 34 35 35 34 33 33 30 27 26 28 30 31 32 32 32 31 31 32 33 33 32 31 30 30 30 28 28 26 26 25 25 25 25 24 23 23 23
37 36 37 38 37 30 26 29 33 29 29 32 33 32 32 32 34 35 36 35 32 31 28 27 27 29 30 32 31 32 32 32 31 29 30 30 30 30 30 29 28 27 26 26 25 25 24 24 23 24 24 24 25 24
32 32 33 34 32 31 29 28 27 29 29 30 33 32 32 33 32 33 34 34 32 29 27 28 30 32 31 31 31 30 29 28 29 29 29 29 30 29 29 28 26 26 26 26 27 26 25 26 25 24 26 26 27 26
31 31 32 31 28 27 27 28 28 28 27 28 29 28 30 31 31 30 31 30 29 30 31 30 30 30 30 29 29 29 29 29 29 29 30 30 29 29 28 28 27 27 28 29 28 28 27 25 25 25 26 25 25 24
29 30 28 25 25 27 25 28 26 24 24 25 26 25 27 29 28 29 27 28 30 32 31 30 30 31 30 30 29 29 28 27 27 28 29 29 30 32 30 29 29 29 27 27 26 27 27 24 24 26 25 25 25 24
27 23 24 24 23 23 24 25 26 25 25 23 22 21 24 28 28 26 24 26 29 31 30 30 30 29 29 28 27 28 28 28 28 30 29 28 28 28 28 28 28 28 28 27 26 27 26 27 24 24 24 24 24 23
22 21 22 20 21 20 20 21 21 21 21 21 19 21 26 27 26 24 23 26 28 31 31 31 30 29 29 29 28 28 29 29 27 27 31 30 29 29 28 28 28 28 29 29 28 27 26 26 25 25 23 23 22 22
19 21 21 21 23 20 20 19 21 21 21 20 20 23 26 26 23 21 22 27 29 31 32 32 32 28 27 27 27 27 27 28 29 28 27 27 28 31 30 29 27 29 30 31 30 28 26 25 24 23 23 22 21 21
16 19 23 23 23 20 21 22 21 22 18 18 21 22 23 19 20 22 26 28 28 30 31 32 31 29 27 26 26 27 27 27 28 27 26 26 26 26 28 30 30 30 31 30 30 30 27 25 24 23 23 23 22 22
22 21 19 22 21 21 19 19 19 18 19 20 19 19 19 18 19 24 26 28 30 30 30 30 29 28 28 27 27 27 27 26 26 24 25 25 25 27 26 29 28 25 29 30 30 29 28 26 25 24 23 22 21 22
21 23 20 17 19 21 20 20 20 22 24 24 21 19 20 21 24 25 26 28 29 29 29 28 28 30 29 28 28 28 27 26 26 23 22 24 26 26 26 28 28 29 28 28 25 28 28 27 26 25 23 22 22 21
20 22 20 17 16 17 23 25 25 27 26 27 26 22 21 23 24 24 25 27 27 28 29 29 29 29 28 28 27 27 28 29 28 26 25 25 26 26 25 25 25 26 27 28 26 24 22 21 20 19 19 18 18 17
21 23 21 20 19 24 26 26 27 26 27 27 28 26 23 24 23 22 22 23 24 26 26 27 27 29 28 27 27 26 26 28 26 26 26 27 25 25 24 23 24 24 24 23 22 21 21 21 20 18 17 15 14 13
25 20 20 17 20 25 25 24 23 23 24 23 23 24 22 23 21 23 21 21 21 23 20 22 25 25 21 23 24 25 21 26 26 25 22 23 23 22 21 21 21 21 21 20 20 19 19 17 16 15 13 12 11 10
22 22 21 21 21 19 22 21 19 19 20 21 22 21 22 22 20 22 16 17 21 23 21 21 21 21 18 17 20 23 22 23 20 20 19 19 19 19 21 20 20 19 18 18 17 17 15 14 13 11 10 8 7 5

GFSWCAN_sfc_dewp_141.txt.gz
Dewpoint
43 43 41 40 40 39 39 39 39 40 40 40 41 41 40 45 44 45 42 43 41 38 35 35 29 30 27 26 32 34 35 35 34 30 27 22 19 20 19 16 22 22 23 23 22 20 16 20 26 26 26 32 29 29
43 43 41 40 40 39 39 39 40 40 40 41 40 42 41 45 44 43 41 44 45 40 39 38 39 39 38 34 30 31 33 28 32 26 22 18 22 23 21 22 19 23 23 22 21 21 26 26 28 32 30 30 31 30
43 44 41 40 40 39 39 39 40 39 39 39 40 41 41 41 44 40 41 42 41 39 37 35 35 38 39 38 41 33 32 29 28 30 30 24 24 21 25 23 23 23 21 27 25 27 25 30 29 28 28 32 31 32
44 43 41 40 40 39 39 39 40 39 39 40 40 40 41 41 43 41 38 39 39 34 35 33 35 37 41 41 39 39 38 36 37 32 28 29 28 23 29 24 25 29 27 25 26 30 27 26 29 32 30 32 33 34
43 43 41 40 39 39 39 39 40 40 40 39 41 40 41 43 41 42 41 40 41 34 30 31 33 33 38 37 37 37 37 37 35 34 31 26 23 28 32 29 28 25 32 33 32 30 32 32 34 34 34 34 34 34
43 43 42 40 39 39 39 39 40 40 41 41 41 41 43 43 42 40 34 41 41 38 35 30 29 31 34 34 33 34 37 37 39 35 33 29 28 31 31 27 28 27 31 35 33 32 30 36 35 32 32 33 33 34
43 42 41 40 39 39 39 40 40 41 41 41 42 43 43 42 42 38 34 37 41 38 30 29 29 30 32 32 32 35 39 39 38 35 33 31 31 34 34 31 27 31 32 32 32 34 34 34 33 33 31 31 32 31
42 42 40 39 39 40 40 40 40 40 40 41 42 43 43 41 41 39 39 41 41 32 29 26 28 33 34 33 34 40 37 37 38 36 37 31 32 35 31 33 30 28 28 31 33 34 33 33 33 31 30 30 30 30
42 41 39 39 40 40 40 40 40 41 41 42 43 41 40 38 37 39 41 41 45 36 28 26 24 28 36 33 35 37 37 34 37 34 34 35 31 30 33 31 31 30 31 32 32 32 31 31 30 30 30 30 30 29
41 40 39 39 39 40 40 41 40 40 41 41 38 35 32 39 42 40 38 37 35 35 34 27 22 30 34 35 33 35 35 34 32 34 37 32 31 30 28 30 30 31 31 30 31 30 30 30 30 30 30 30 29 28
40 40 40 40 40 41 40 39 42 41 40 39 37 36 39 41 39 36 32 29 29 27 26 26 25 31 35 32 32 35 32 35 28 33 31 27 27 29 29 29 30 29 31 30 28 29 30 30 30 31 31 31 31 30
41 40 40 40 41 41 40 41 41 39 35 35 36 38 39 36 34 29 26 25 22 18 25 26 26 28 34 36 33 35 33 32 28 34 30 25 28 30 31 31 32 31 31 30 30 29 30 29 30 31 32 31 30 31
40 40 41 41 41 42 42 41 40 39 37 35 28 30 30 32 25 24 22 22 25 26 29 30 33 35 36 37 33 34 31 29 31 32 26 27 31 30 32 32 32 32 32 31 31 32 31 32 34 33 32 33 32 30
41 41 41 41 41 41 41 42 40 40 37 30 27 26 28 27 26 25 27 29 32 33 32 31 33 33 35 32 35 30 33 29 27 26 23 31 31 32 33 33 32 33 36 34 33 34 33 32 31 32 32 30 29 27
41 41 40 40 40 41 41 41 41 41 36 30 28 26 28 32 34 35 36 35 35 36 35 33 33 34 32 32 30 31 26 25 23 24 33 34 32 32 33 34 35 34 33 32 33 32 32 32 31 30 29 29 29 27
40 39 37 41 42 42 41 40 39 37 35 32 32 30 34 32 32 33 34 34 36 37 37 34 32 32 30 30 26 26 21 19 28 34 34 34 35 35 35 34 33 33 34 32 33 33 33 32 32 30 28 28 27 26
39 33 41 42 43 42 41 38 39 34 32 30 33 35 34 34 33 35 36 34 37 37 34 32 30 28 30 26 21 25 28 32 32 32 33 36 35 33 33 33 33 33 32 33 32 32 32 32 31 29 26 26 26 26
35 38 41 43 42 40 41 39 36 32 28 32 32 34 35 35 33 35 35 37 37 34 31 26 29 24 28 22 24 32 30 33 34 34 34 35 35 35 35 35 34 33 31 31 30 30 30 29 28 27 27 25 25 24
38 39 41 42 41 39 33 33 34 29 32 34 35 34 34 35 35 35 36 37 36 35 33 31 28 26 30 32 33 34 33 34 32 32 33 35 35 34 34 34 33 32 30 29 27 27 27 26 27 26 26 25 25 24
38 38 37 39 41 35 27 30 34 30 29 33 34 33 33 34 35 34 38 36 34 33 29 28 30 31 32 32 33 34 34 34 33 32 32 32 33 32 32 31 32 30 29 28 27 27 26 26 26 25 26 25 27 26
33 33 35 36 34 32 30 29 28 30 30 31 33 34 33 36 35 35 35 36 35 31 29 30 31 32 32 33 33 32 32 31 30 30 30 30 32 31 31 30 30 29 28 28 28 27 27 27 26 26 28 29 31 30
32 30 34 35 32 29 28 29 29 29 29 29 32 34 33 32 33 33 33 32 31 31 32 31 30 30 30 29 29 29 30 30 30 31 31 31 30 30 29 30 29 30 30 30 28 29 28 26 27 27 28 28 28 28
30 30 30 27 29 29 29 30 27 25 27 28 29 29 31 32 32 32 31 30 31 32 31 30 30 31 30 30 30 30 30 28 27 28 30 30 31 33 30 31 31 32 30 29 28 29 29 26 26 28 29 27 28 27
29 26 31 29 27 27 28 29 27 25 27 25 25 24 26 30 29 28 26 27 31 32 30 30 30 29 29 28 27 27 28 28 28 31 31 29 28 28 30 29 29 30 30 29 27 28 28 28 26 27 28 28 28 26
23 24 28 22 26 25 25 25 25 23 23 25 22 25 27 29 28 25 24 27 29 32 32 31 30 29 30 30 28 29 30 27 26 27 31 28 29 27 26 26 27 27 28 29 28 28 28 28 27 27 26 27 26 26
19 23 24 22 24 23 22 21 23 23 23 23 24 25 28 27 25 24 23 30 30 33 33 33 34 30 29 28 28 28 28 30 29 29 28 28 28 32 31 29 28 29 30 32 31 27 26 25 25 25 25 26 25 26
17 19 22 25 23 22 24 25 23 23 22 22 23 23 24 22 23 25 27 30 31 33 34 34 32 30 28 28 28 29 29 30 29 29 28 28 28 29 30 31 31 30 32 30 31 30 28 26 26 25 26 27 26 26
21 22 19 23 23 24 21 22 22 21 22 21 22 21 20 21 23 26 27 30 32 32 32 33 32 30 30 30 30 30 30 29 29 29 28 28 28 29 28 30 29 26 30 32 32 32 32 30 27 26 26 25 25 26
21 25 23 20 21 22 22 21 21 22 23 23 24 21 23 23 26 26 27 30 32 32 30 29 30 31 30 30 30 31 30 30 28 25 23 25 26 26 27 28 29 29 31 30 26 29 31 31 29 28 27 26 25 25
21 26 22 20 18 19 25 25 26 28 26 26 27 22 22 26 27 27 27 27 28 30 32 32 31 31 30 30 28 27 30 30 30 29 26 26 27 28 26 26 26 26 28 30 28 28 27 28 27 26 24 24 23 22
25 25 21 21 20 26 29 30 30 28 28 28 31 26 27 27 27 28 28 28 29 30 29 29 29 32 31 28 29 27 26 29 28 28 28 28 27 26 26 25 25 26 27 26 25 25 25 25 24 22 21 20 19 19
25 22 21 18 21 28 28 24 25 24 24 24 24 27 26 25 22 27 26 26 26 26 27 30 30 28 29 29 30 30 26 28 28 27 26 26 26 25 25 24 25 25 25 24 24 24 24 23 22 21 18 17 17 16
24 23 22 21 21 20 25 23 20 20 22 21 22 24 24 23 21 28 23 25 27 28 27 27 27 26 25 24 25 26 26 27 25 24 24 24 23 24 24 24 24 23 23 22 22 22 21 19 18 17 15 13 12 11